Balance de Bruxelles - Uccle

Balances > Bruxelles - Uccle > Ce mois-ci

Ce mois-ci

Voir les données pour : cette semaine | hier

Graphiques

  Température (°C)   Température intérieure (°C)   Humidité (%)   Poids (kg)   Pluie (l/m²)



Journal

Désolé, aucune information concernant cette période n'est disponible.

Tableau

Date Température (°C)Température int. (°C)Humidité (%)Pluie (l/m²)Poids (kg)
minmaxmoyminmaxmoyminmaxmoypoidsvariation
07/03/2018,419,518,90,00,00,0626664,400,20,0
08/03/2017,019,818,80,00,00,0646866,200,20,0
09/03/2017,319,518,00,00,00,0637068,000,20,0
10/03/2017,319,317,80,00,00,0667068,104,1+3,9
11/03/2017,520,018,20,00,00,0697371,604,10,0
12/03/2017,919,918,60,00,00,0647068,504,10,0
13/03/2017,619,818,10,00,00,0656866,504,10,0
14/03/2017,519,918,90,00,00,0526860,504,10,0
15/03/2017,820,519,50,00,00,0646865,704,10,0
16/03/2018,321,220,30,00,00,0656966,804,10,0
17/03/2017,822,020,20,00,00,0446759,604,10,0
18/03/2018,221,620,20,00,00,0416554,004,0-0,1
19/03/2017,921,120,20,00,00,0586360,804,1+0,1
20/03/2018,820,920,20,00,00,0586460,704,10,0
21/03/2018,121,319,80,00,00,0526458,504,10,0
22/03/2017,422,619,90,00,00,0446352,104,10,0
23/03/2017,622,220,10,00,00,0435849,404,10,0
24/03/2017,921,719,80,00,00,0285641,804,0-0,1
25/03/2017,721,519,80,022,011,9335141,794,1+0,1
26/03/2018,621,920,317,921,920,0325043,004,10,0
27/03/2018,021,720,217,621,920,0405244,404,10,0